ギャラッド彗星

C/2008 Q3 ( Garradd )

English version
Home page
Updated on November 17, 2012

---------------------------------------------------------------------

・ プロフィール

発見日 2008年8月27日
発見光度 19.2等
発見者 G. J. Garradd (Siding Spring Survey)

・ 写真集

・ 軌道要素

Epoch 2009 June 18.0 TT = JDT 2455000.5
T 2009 June 23.08980 TT                                 MPC
q   1.7982217            (2000.0)            P               Q
z  +0.0001425      Peri.  340.85360     -0.56422670     -0.71956117
 +/-0.0000007      Node   219.73407     -0.65050452     +0.08550228
e   0.9997438      Incl.  140.70604     -0.50842118     +0.68914518
From 624 observations 2009 May 3-2010 June 3, mean residual 0".6.

・ 星図

・ 光度変化

        m1 = -0.3 + 5 logΔ + 28.5 log r  [   ,130]  (              〜2009年10月31日)
        m1 =  3.0 + 5 logΔ + 20.0 log r  [130,   ]  (2009年10月31日〜              )

---------------------------------------------------------------------

軌道要素はM.P.E.C. 2012-U109に掲載されたものです。
星図はステラナビゲータ Ver.8 (アストロアーツ) で作成したものです。
光度グラフはComet for Windowsで作成したものです。

---------------------------------------------------------------------

Copyright(C) Seiichi Yoshida (comet@aerith.net). All rights reserved.